VK1ET-13 Weather Reports


Display with metric or nautical units.
time (UTC)temp
F
wind
direction
speed
MPH
gust
MPH
rain 1hr
in
rain 24hr
in
rain mn
in
humidity
%
barometer
mb
20260904041529 60 272 7.0 13.0 0.00 0.00 0.00 52 1018.3
20260904040535 60 293 8.0 15.0 0.00 0.00 0.00 51 1018.2
20260904035521 60 258 7.0 11.0 0.00 0.00 0.00 51 1018.2
20260904034528 61 289 7.0 15.0 0.00 0.00 0.00 50 1018.4
20260904033533 60 285 8.0 13.0 0.00 0.00 0.00 51 1018.2
20260904032530 60 307 8.0 13.0 0.00 0.00 0.00 50 1018.4
20260904031521 60 296 6.0 10.0 0.00 0.00 0.00 51 1018.6
20260904030536 60 300 8.0 14.0 0.00 0.00 0.00 49 1018.6
20260904025533 59 239 5.0 10.0 0.00 0.00 0.00 50 1019.0
20260904024519 58 270 4.0 8.0 0.00 0.00 0.00 54 1019.2
20260904023524 59 247 5.0 9.0 0.00 0.00 0.00 54 1019.7
20260904022530 59 272 8.0 15.0 0.00 0.00 0.00 52 1020.0
20260904021517 60 278 7.0 16.0 0.00 0.00 0.00 54 1020.0
20260904020531 59 262 6.0 13.0 0.00 0.00 0.00 56 1020.3
20260904015531 60 241 6.0 13.0 0.00 0.00 0.00 57 1020.4
20260904014517 58 290 9.0 14.0 0.00 0.00 0.00 57 1020.7
20260904013524 58 274 7.0 14.0 0.00 0.00 0.00 59 1020.7
20260904012530 58 303 9.0 17.0 0.00 0.00 0.00 57 1020.5
20260904011516 58 306 6.0 12.0 0.00 0.00 0.00 58 1020.7
20260904010523 58 261 4.0 8.0 0.00 0.00 0.00 55 1020.7
20260904005531 58 269 6.0 11.0 0.00 0.00 0.00 54 1020.7
20260904004535 58 291 6.0 13.0 0.00 0.00 0.00 64 1020.7
20260904003521 56 333 4.0 9.0 0.00 0.00 0.00 71 1020.8
20260904002528 56 315 6.0 11.0 0.00 0.00 0.00 65 1021.0
20260904001535 56 316 5.0 8.0 0.00 0.00 0.00 69 1021.0
20260904000521 55 329 2.0 7.0 0.00 0.00 0.00 74 1021.2
20260903235529 53 332 4.0 7.0 0.00 0.00 0.00 79 1021.6
20260903234534 53 322 4.0 7.0 0.00 0.00 0.00 82 1021.7
20260903233526 52 321 4.0 10.0 0.00 0.00 0.00 84 1021.9
20260903232534 52 320 7.0 10.0 0.00 0.00 0.00 85 1021.8
20260903231533 52 348 4.0 7.0 0.00 0.00 0.00 86 1021.7
20260903230518 52 328 5.0 11.0 0.00 0.00 0.00 85 1021.7
20260903225523 51 335 5.0 9.0 0.00 0.00 0.00 87 1021.8
20260903224529 50 327 5.0 9.0 0.00 0.00 0.00 88 1021.6
20260903223524 49 306 3.0 7.0 0.00 0.00 0.00 90 1021.6
20260903222529 50 308 4.0 6.0 0.00 0.00 0.00 88 1021.7
20260903221535 49 296 4.0 8.0 0.00 0.00 0.00 88 1021.5
20260903220520 50 305 4.0 8.0 0.00 0.00 0.00 87 1021.5
20260903215528 49 349 1.0 3.0 0.00 0.00 0.00 88 1021.2
20260903214533 50 330 3.0 6.0 0.00 0.00 0.00 87 1020.7
20260903213519 49 7 2.0 4.0 0.00 0.00 0.00 90 1020.4
20260903212523 48 10 2.0 4.0 0.00 0.00 0.00 92 1020.7
20260903211529 49 24 2.0 4.0 0.00 0.00 0.00 93 1020.5
20260903210536 49 13 1.0 1.0 0.00 0.00 0.00 93 1020.3
20260903205529 49 335 1.0 3.0 0.00 0.00 0.00 93 1020.3
20260903205020 49 332 1.0 3.0 0.00 0.00 0.00 93 1020.1
20260903204535 49 345 1.0 3.0 0.00 0.00 0.00 94 1020.0
20260903203520 48 355 1.0 3.0 0.00 0.00 0.00 94 1020.2
20260903202527 48 17 1.0 3.0 0.00 0.00 0.00 94 1020.1
20260903201534 48 199 0.0 2.0 0.00 0.00 0.00 94 1019.9
20260903201018 48 16 1.0 3.0 0.00 0.00 0.00 93 1019.9
20260903200024 48 19 2.0 3.0 0.00 0.00 0.00 93 1020.0
20260903195521 48 360 1.0 3.0 0.00 0.00 0.00 93 1020.0
20260903194535 48 349 2.0 3.0 0.00 0.00 0.00 93 1019.9
20260903194033 48 354 2.0 3.0 0.00 0.00 0.00 93 1019.7
20260903193019 48 3 2.0 4.0 0.00 0.00 0.00 93 1019.6
20260903192027 48 12 2.0 3.0 0.00 0.00 0.00 93 1019.6
20260903191033 48 7 1.0 3.0 0.00 0.00 0.00 93 1019.5
20260903154519 52 7 2.0 4.0 0.00 0.00 0.00 82 1019.0
20260903153535 54 340 2.0 6.0 0.00 0.00 0.00 71 1019.1
20260903152517 53 262 4.0 7.0 0.00 0.00 0.00 71 1019.0
20260903151526 53 281 3.0 6.0 0.00 0.00 0.00 74 1019.0
20260903150534 53 325 3.0 6.0 0.00 0.00 0.00 77 1019.2
20260903145522 53 284 2.0 3.0 0.00 0.00 0.00 78 1019.1
20260903144537 53 335 4.0 9.0 0.00 0.00 0.00 79 1019.2
20260903143518 53 322 2.0 4.0 0.00 0.00 0.00 78 1019.1
20260903142524 53 294 3.0 7.0 0.00 0.00 0.00 78 1019.2
20260903141531 53 281 3.0 6.0 0.00 0.00 0.00 77 1019.2
20260903140535 53 305 3.0 9.0 0.00 0.00 0.00 76 1019.3
20260903135522 53 276 3.0 8.0 0.00 0.00 0.00 74 1019.2
20260903134528 53 217 2.0 5.0 0.00 0.00 0.00 72 1019.2
20260903133534 54 242 2.0 5.0 0.00 0.00 0.00 69 1019.3
20260903132519 54 288 2.0 5.0 0.00 0.00 0.00 68 1019.3
20260903131534 54 287 3.0 7.0 0.00 0.00 0.00 67 1019.3
20260903130531 54 281 4.0 9.0 0.00 0.00 0.00 66 1019.3
20260903125518 54 268 4.0 11.0 0.00 0.00 0.00 68 1019.3
20260903124529 54 278 5.0 12.0 0.00 0.00 0.00 69 1019.4
20260903123528 54 282 3.0 9.0 0.00 0.00 0.00 71 1019.3
20260903122535 53 313 5.0 9.0 0.00 0.00 0.00 74 1019.3
20260903121520 53 295 3.0 7.0 0.00 0.00 0.00 74 1019.3
20260903120527 53 314 5.0 9.0 0.00 0.00 0.00 75 1019.2
20260903115535 54 282 5.0 10.0 0.00 0.00 0.00 72 1019.2
20260903114522 53 275 5.0 9.0 0.00 0.00 0.00 75 1019.2
20260903113528 53 281 4.0 8.0 0.00 0.00 0.00 76 1019.1
20260903112535 53 294 6.0 14.0 0.00 0.00 0.00 75 1019.1
20260903111520 53 294 4.0 8.0 0.00 0.00 0.00 75 1019.0
20260903110526 54 290 6.0 10.0 0.00 0.00 0.00 72 1018.9
20260903105540 54 276 5.0 8.0 0.00 0.00 0.00 72 1018.9
20260903104518 53 285 5.0 9.0 0.00 0.00 0.00 73 1018.9
20260903103524 54 282 5.0 9.0 0.00 0.00 0.00 73 1018.7
20260903102531 53 278 6.0 10.0 0.00 0.00 0.00 74 1018.4
20260903101542 54 281 6.0 11.0 0.00 0.00 0.00 72 1018.2
20260903100529 54 269 6.0 8.0 0.00 0.00 0.00 71 1018.3
20260903095522 55 284 6.0 13.0 0.00 0.00 0.00 70 1018.2
20260903094526 54 263 6.0 10.0 0.00 0.00 0.00 71 1018.1
20260903093536 55 275 5.0 8.0 0.00 0.00 0.00 69 1018.0
20260903092536 55 263 5.0 9.0 0.00 0.00 0.00 68 1017.9
20260903091522 55 263 5.0 10.0 0.00 0.00 0.00 68 1017.7
20260903090527 55 256 5.0 8.0 0.00 0.00 0.00 69 1017.5
20260903085532 55 285 6.0 10.0 0.00 0.00 0.00 69 1017.4
20260903084517 54 281 5.0 9.0 0.00 0.00 0.00 70 1017.1
20260903083525 55 288 5.0 10.0 0.00 0.00 0.00 69 1016.9
20260903082532 55 287 4.0 7.0 0.00 0.00 0.00 68 1016.7
20260903081517 55 265 4.0 7.0 0.00 0.00 0.00 68 1016.5
20260903080523 55 278 4.0 8.0 0.00 0.00 0.00 68 1016.5
20260903075529 55 274 4.0 7.0 0.00 0.00 0.00 68 1016.3
20260903074536 55 299 5.0 10.0 0.00 0.00 0.00 68 1016.2
20260903073529 55 279 5.0 11.0 0.00 0.00 0.00 67 1016.0
20260903072528 56 282 4.0 8.0 0.00 0.00 0.00 66 1015.8
20260903071533 56 273 4.0 8.0 0.00 0.00 0.00 65 1015.8
20260903070544 56 255 6.0 11.0 0.00 0.00 0.00 65 1015.6
20260903065520 56 257 6.0 11.0 0.00 0.00 0.00 64 1015.5
20260903064526 56 273 6.0 11.0 0.00 0.00 0.00 63 1015.5
20260903063531 57 256 5.0 12.0 0.00 0.00 0.00 62 1015.5
20260903062518 57 256 6.0 11.0 0.00 0.00 0.00 61 1015.2
20260903061525 58 260 7.0 14.0 0.00 0.00 0.00 59 1015.1
20260903060538 57 252 7.0 14.0 0.00 0.00 0.00 59 1015.0
20260903055517 58 244 7.0 13.0 0.00 0.00 0.00 59 1014.9
20260903054523 59 261 7.0 14.0 0.00 0.00 0.00 57 1014.8
20260903053530 58 242 8.0 12.0 0.00 0.00 0.00 58 1014.9
20260903052536 59 254 7.0 14.0 0.00 0.00 0.00 57 1014.7
20260903051527 59 250 7.0 16.0 0.00 0.00 0.00 56 1014.5
20260903050526 59 241 8.0 14.0 0.00 0.00 0.00 56 1014.3
20260903045536 60 248 7.0 14.0 0.00 0.00 0.00 55 1014.3
20260903044530 60 254 6.0 14.0 0.00 0.00 0.00 54 1014.1
20260903043516 60 260 6.0 11.0 0.00 0.00 0.00 54 1013.8
20260903042523 60 274 6.0 14.0 0.00 0.00 0.00 54 1013.6